Vertical_Velocity
0 -0 -3 -4 -5 -1 9 -10 -6 -2 23 -1 -7 -3 13 -13 6 3 -0 4 2 -5 3 1 0 -3 -0 1 -3 -0 -4 -3 -1 -1 -2 -1 -1 -2 -1 -0 -1 -2 -3 -0 -1 -2 -2 1 -1 -4 -1 -1 -0 0
-1 -3 -3 -1 -0 -3 3 -9 2 -10 5 -2 -8 0 9 -18 5 2 4 3 2 -9 -1 4 1 -1 1 -1 -6 -1 -1 -0 -1 -2 -2 -0 -0 -1 -1 -1 -3 -4 -5 -5 -6 -6 -1 1 1 3 1 -0 -1 1
-4 -3 1 -4 -3 -4 -4 -6 10 -7 -4 -2 -8 2 6 -24 3 2 4 -2 -0 -15 1 0 0 -1 1 0 0 -7 -0 -2 -0 0 -2 -1 -1 -3 -1 -1 0 -1 1 -2 1 -1 0 -0 1 0 -1 0 2 -2
-3 6 2 -5 -4 -5 -7 3 8 29 10 -15 3 3 5 -14 3 0 3 3 2 -3 -9 -0 2 0 1 -0 -1 0 -6 -3 -3 1 -1 -0 -0 0 -1 -5 -2 -4 -2 0 0 -0 1 2 -2 -3 -2 -2 7 1
-0 2 -4 -2 -5 -4 -2 4 -3 6 8 -8 2 6 0 2 3 -0 9 2 1 0 -6 0 3 1 1 1 -1 2 -1 -3 -2 -2 -0 -1 0 -1 0 -2 -0 0 -1 -3 -2 -1 -0 -2 -1 3 1 0 1 -1
-4 2 -1 0 -4 -4 0 1 10 -5 8 3 -2 -1 -5 4 -5 2 -4 1 2 1 -11 -1 2 0 1 2 2 0 0 -3 -1 -2 -1 -1 1 1 0 -0 1 -0 -0 1 -1 -0 1 1 -1 -1 -0 -2 -5 0
-3 -1 8 -5 -5 -3 7 -5 43 -1 7 1 4 -5 -0 -5 0 4 0 -0 3 -1 -6 1 1 3 1 -1 -2 -4 -0 -2 -2 -1 -1 -1 -1 1 0 -0 -0 -1 2 0 -0 -0 2 2 1 1 -0 3 3 1
3 -4 2 1 -3 -1 4 3 28 2 3 0 -4 5 0 -2 5 1 -1 3 2 -0 -1 -3 1 1 0 -0 -1 -1 -0 -0 -0 0 0 -0 0 0 -0 -2 -1 1 1 1 -0 1 -2 -1 -1 -1 0 2 0 1
-1 1 -2 6 -7 -0 -0 2 14 10 1 -5 -1 -1 1 -0 -1 -1 -1 1 2 -1 -4 -2 -4 -4 2 1 -1 0 1 -1 1 0 -1 1 -1 -2 -5 -3 -1 -1 -1 -1 -1 -1 1 1 0 1 0 1 0 -0
3 2 1 2 -6 -1 4 42 10 3 -1 -0 -4 -2 -3 -2 4 -0 -3 -1 -1 -1 -1 -3 2 -2 1 1 2 -1 1 -1 -0 -6 2 1 -3 -1 -0 -0 -1 -2 -2 -1 -3 -4 -3 -0 0 -1 -0 2 -0 -0
2 4 2 -1 -3 2 16 55 -1 -0 6 -3 -6 -2 3 9 -4 -4 -1 -2 0 -1 1 1 -1 -3 -1 -5 -1 -0 -2 -1 -0 -7 -3 -1 -2 -2 -0 -0 -0 -1 -1 -2 -1 -1 -1 -1 -3 -4 -1 -0 1 1
1 4 0 -2 1 11 2 22 -13 -9 -6 -11 -7 1 -3 -1 -0 -6 -1 -1 -1 -4 1 -3 0 -1 0 0 -4 0 -1 -2 -3 -1 1 -0 -5 -0 -1 -1 -2 -0 -1 -1 -1 -2 -2 -1 -0 -1 -1 -2 0 2
-1 6 -3 2 2 4 57 -10 16 10 -11 -2 -6 -4 -2 1 -3 0 -1 -1 0 -1 -0 1 -0 -3 0 1 -0 -1 -1 -4 1 0 -3 -5 -0 1 -1 -2 -2 -1 -0 0 0 -1 -0 -1 -1 -0 -0 0 0 -2
-0 2 -1 -2 7 21 9 12 4 -4 -13 -4 -4 1 -5 2 -2 -3 -2 -3 2 -0 0 -2 -1 -4 1 -2 -1 -5 -6 -3 2 2 -6 -3 -3 -2 -2 -1 -1 -0 0 -1 -0 -1 0 0 -5 0 -0 2 -0 -0
-2 5 5 13 0 44 13 5 7 4 -8 -3 0 -3 -0 -2 0 1 2 -3 3 2 -4 -2 -3 -3 0 -3 -1 -2 3 -1 -4 -6 -3 -2 -2 -0 -1 -2 -1 0 0 0 1 -0 -1 -0 -1 -2 -1 -1 -1 -2
17 18 3 0 13 34 26 24 2 -7 -4 -1 0 -2 4 -4 2 -0 2 1 1 2 -1 -1 -1 -3 -0 -3 -2 -2 -3 -5 -7 -2 -1 -2 -1 -0 -1 0 1 -0 -0 -1 1 1 -0 -1 0 0 -1 -3 2 1
10 -11 -8 -18 58 22 10 -26 -2 -5 -3 -1 -1 3 1 0 -1 0 -4 1 1 -1 -1 -2 -3 -6 -2 -1 -0 -2 -4 -5 -3 -1 -0 0 -0 -0 -0 1 0 -2 -2 -1 -1 0 -2 -0 1 0 -3 5 -3 -1
-4 1 -25 54 -1 30 10 -4 -5 -3 -1 1 -2 2 0 2 -0 -1 1 1 -2 -2 -1 -3 -5 -1 -2 -2 -2 -4 -1 2 1 1 0 -0 0 -1 -1 -0 -2 -2 -1 -1 -1 -2 -1 -3 -1 -1 -0 -1 2 1
-17 -11 34 3 -21 -28 -6 4 -1 -3 1 0 2 2 0 4 4 1 1 -0 -1 -3 -5 -0 -3 -1 -2 -2 -2 -0 0 -2 -4 -2 1 1 -1 -0 -1 -1 -2 -0 0 -1 -1 -2 -1 1 -1 -0 0 0 -2 -0
-10 -13 -12 17 12 -8 -5 2 -1 -3 -0 1 1 -2 2 1 4 3 -1 -0 -0 -1 -2 -2 -2 -2 -3 -2 -1 0 -1 -2 -1 -1 -1 0 -0 -1 -1 -3 -0 0 -1 -3 -2 1 0 0 1 1 -1 -0 -0 1
22 49 53 -2 -11 -4 -4 2 -2 -1 -2 -2 2 1 0 2 2 -0 -2 1 -2 -1 -1 -1 0 -0 -1 0 -0 -1 -2 -2 -1 0 -1 -1 -1 -1 -2 -0 0 -0 -2 -2 1 -1 0 -1 -0 1 0 -0 0 0
44 6 -13 -1 -8 -4 -4 0 -4 -4 -3 3 -3 1 -0 -1 -0 -2 -1 -1 -1 -1 -0 -1 -1 -1 0 -0 -2 -3 -2 0 0 0 -0 -0 -0 0 1 0 0 1 -1 -2 -0 0 0 -1 -2 -1 0 1 2 1
6 9 -13 -5 -7 -4 2 1 -0 1 -3 2 0 -2 0 -0 -1 0 -1 -1 -1 -1 -1 0 0 0 -2 -3 -1 -0 -1 -1 -2 -1 -0 -1 -1 -0 -0 -2 -2 -3 0 1 1 -0 -2 -2 -1 0 -1 -2 -3 -2
9 -8 -4 -3 -5 2 -0 -0 -0 -1 0 -1 -1 1 1 0 -0 -1 -1 -1 -0 0 -0 -0 -1 -1 -1 0 -0 -1 -2 -0 0 -2 -3 -3 -2 -0 -1 -1 -1 -1 -1 0 0 -2 -3 -3 -0 -1 3 -2 -2 -5
-20 -2 -5 2 2 -2 -1 0 1 -2 0 1 -1 1 1 -1 -1 0 -1 -3 0 -0 -1 -0 -1 2 -0 -1 -2 -2 -0 0 -2 -3 2 -1 2 -1 -1 -1 0 1 1 1 -1 -2 -1 -1 3 1 -0 0 -0 -4
-6 1 -1 0 1 -5 1 -1 -0 -0 -1 -0 1 1 -0 -1 0 -3 -3 -2 -3 -4 -5 -5 -5 -2 -2 -1 -0 -1 -2 -2 -3 -2 6 1 2 1 1 -0 -1 8 -0 -1 -1 -1 1 1 1 -0 2 2 -1 0
-2 1 -0 0 -1 -1 -1 0 0 -3 -1 -1 0 1 -1 -0 -2 -5 0 1 -2 -1 3 2 -1 -1 -1 -2 -2 -2 -2 -1 -1 -1 1 3 2 1 -0 1 1 1 -0 -1 0 0 -1 1 1 0 1 -0 1 1
1 -0 -2 0 -1 1 -2 -0 -1 -0 0 1 -0 -1 -4 -6 -5 2 1 1 0 1 1 0 -1 -1 -2 -2 -2 -1 -2 -1 -1 -1 -0 0 1 -0 0 1 3 2 -0 0 -2 0 1 -0 -0 1 -0 -1 -0 1
-0 1 -1 0 -0 -2 1 -0 0 1 1 -1 -2 0 -1 2 2 1 1 -1 -1 0 0 1 -1 -2 -3 -2 -1 -1 -1 -2 -1 -0 -0 -2 1 5 5 5 0 -1 -2 0 -0 -1 1 1 1 0 0 -1 -1 1
1 -0 -2 -0 -2 1 2 1 1 3 1 0 1 1 1 3 4 2 0 1 2 0 -1 -1 -1 -0 -1 -1 -1 -1 -0 0 0 -0 -3 -2 -2 -2 -1 1 -0 -1 -1 0 1 -0 -1 0 1 -0 -1 -1 -1 0
1 1 -2 -1 1 1 2 2 3 1 1 3 4 -4 -0 0 2 1 -1 -1 -2 -2 -2 -1 -1 -1 -1 -1 -1 0 2 -0 -1 -1 -2 -2 1 1 -2 1 3 5 3 4 2 2 0 2 1 0 -1 -1 -1 1
-1 -0 -3 -0 1 -0 2 1 0 -2 -1 -2 -2 0 -0 0 -1 -0 0 -1 -2 -2 -2 -2 -2 -1 0 1 2 -0 -2 -1 1 -1 -3 -2 2 2 -0 -1 -4 -2 -2 1 3 0 1 1 2 2 -1 -1 -1 1
-1 0 1 -2 0 -0 -0 -1 -1 -1 -1 -1 -1 -1 -1 -1 -1 -1 -2 -2 -1 -1 -2 -3 -3 -1 3 3 1 1 -2 -4 -2 0 -0 -2 -3 -1 -0 -2 5 6 -4 -1 1 1 1 0 2 4 1 -2 -1 -0
Height
1408 1406 1404 1402 1403 1402 1400 1400 1399 1402 1404 1410 1416 1423 1427 1429 1432 1435 1437 1438 1440 1446 1456 1457 1459 1460 1463 1464 1468 1470 1473 1474 1473 1474 1477 1476 1477 1478 1478 1477 1475 1479 1485 1488 1481 1482 1486 1474 1471 1472 1475 1471 1470 1467
1401 1400 1399 1398 1398 1398 1397 1398 1398 1401 1405 1411 1417 1423 1428 1430 1434 1436 1437 1438 1439 1442 1457 1460 1460 1461 1463 1464 1465 1469 1472 1472 1473 1475 1475 1472 1475 1478 1482 1485 1478 1480 1481 1483 1483 1483 1476 1474 1473 1473 1472 1472 1470 1468
1394 1394 1393 1393 1393 1394 1395 1397 1395 1398 1405 1412 1418 1423 1426 1429 1434 1436 1437 1438 1440 1448 1459 1462 1463 1464 1465 1465 1465 1467 1471 1472 1473 1473 1476 1478 1474 1478 1482 1483 1480 1477 1475 1477 1477 1476 1476 1475 1476 1476 1475 1472 1471 1469
1385 1386 1388 1388 1389 1392 1395 1395 1395 1401 1402 1409 1417 1421 1425 1429 1433 1436 1437 1439 1440 1445 1455 1467 1465 1466 1466 1466 1466 1466 1467 1471 1473 1475 1477 1477 1475 1476 1479 1479 1480 1478 1475 1477 1478 1477 1476 1475 1475 1475 1475 1474 1473 1471
1378 1379 1381 1384 1386 1388 1392 1391 1393 1396 1401 1408 1415 1421 1425 1431 1433 1435 1439 1440 1440 1444 1453 1465 1467 1468 1467 1468 1468 1469 1469 1471 1474 1477 1478 1479 1476 1477 1476 1478 1477 1476 1476 1479 1474 1476 1476 1474 1475 1473 1472 1472 1472 1472
1368 1372 1376 1378 1380 1384 1387 1388 1392 1395 1400 1407 1414 1420 1426 1430 1433 1437 1442 1442 1441 1441 1446 1463 1469 1469 1469 1469 1470 1471 1471 1473 1474 1476 1478 1477 1476 1478 1478 1478 1475 1475 1474 1474 1475 1476 1474 1474 1473 1473 1473 1471 1471 1472
1361 1361 1365 1370 1375 1380 1383 1387 1392 1393 1398 1404 1413 1421 1425 1429 1434 1436 1437 1438 1440 1442 1445 1463 1468 1470 1471 1472 1473 1474 1474 1474 1475 1477 1478 1478 1478 1478 1476 1479 1472 1474 1474 1474 1474 1473 1473 1473 1471 1472 1472 1471 1470 1470
1348 1352 1356 1362 1367 1372 1377 1382 1386 1390 1396 1404 1412 1421 1424 1429 1433 1435 1436 1437 1440 1442 1445 1457 1468 1470 1471 1472 1474 1475 1475 1475 1477 1478 1479 1478 1477 1477 1479 1471 1471 1472 1473 1473 1473 1472 1471 1471 1472 1471 1471 1469 1470 1469
1337 1343 1349 1354 1360 1366 1372 1375 1380 1385 1391 1403 1412 1421 1427 1431 1433 1434 1437 1439 1441 1445 1444 1450 1461 1470 1469 1471 1473 1475 1475 1477 1478 1477 1477 1478 1474 1474 1468 1467 1470 1471 1471 1470 1469 1469 1469 1470 1470 1470 1469 1467 1467 1465
1322 1331 1338 1344 1350 1359 1367 1371 1374 1380 1389 1402 1414 1422 1426 1428 1432 1435 1440 1441 1442 1441 1443 1447 1453 1460 1465 1467 1472 1474 1474 1475 1478 1475 1474 1473 1472 1464 1465 1466 1468 1468 1468 1468 1467 1468 1467 1467 1467 1467 1465 1465 1465 1463
1307 1317 1326 1334 1344 1351 1361 1366 1368 1377 1388 1399 1409 1416 1422 1427 1431 1435 1437 1439 1440 1442 1441 1445 1449 1454 1462 1466 1469 1471 1474 1473 1476 1475 1473 1472 1466 1460 1462 1465 1466 1466 1466 1466 1466 1466 1465 1465 1464 1462 1460 1460 1459 1458
1292 1304 1314 1324 1336 1344 1349 1354 1361 1372 1384 1395 1404 1413 1422 1424 1430 1435 1438 1437 1437 1436 1439 1441 1447 1451 1458 1462 1466 1471 1473 1473 1483 1469 1470 1465 1459 1458 1461 1463 1465 1465 1464 1463 1462 1462 1461 1460 1459 1458 1456 1455 1455 1455
1279 1292 1304 1315 1327 1336 1342 1348 1361 1372 1383 1394 1403 1411 1415 1425 1433 1433 1432 1434 1432 1429 1432 1437 1445 1450 1456 1460 1464 1466 1475 1477 1467 1468 1463 1461 1456 1458 1460 1462 1463 1463 1462 1461 1460 1459 1457 1455 1454 1453 1451 1451 1449 1449
1268 1283 1296 1311 1321 1327 1335 1346 1356 1367 1381 1388 1392 1406 1406 1416 1410 1406 1404 1404 1412 1418 1425 1432 1440 1446 1453 1458 1462 1472 1469 1469 1469 1471 1466 1454 1454 1456 1459 1461 1461 1461 1460 1459 1457 1455 1452 1450 1448 1448 1447 1446 1445 1441
1261 1278 1293 1308 1319 1325 1332 1342 1354 1367 1375 1381 1385 1387 1396 1393 1397 1400 1401 1403 1409 1418 1423 1431 1439 1445 1452 1459 1459 1462 1466 1478 1466 1460 1451 1448 1452 1455 1457 1458 1458 1458 1456 1454 1452 1450 1448 1445 1444 1442 1441 1438 1437 1437
1258 1278 1290 1302 1312 1323 1332 1343 1355 1367 1374 1379 1380 1386 1389 1393 1400 1401 1403 1405 1410 1417 1423 1428 1439 1448 1455 1454 1460 1467 1468 1468 1453 1446 1445 1448 1451 1453 1455 1455 1455 1454 1452 1450 1447 1444 1442 1440 1439 1437 1436 1435 1433 1434
1258 1267 1286 1301 1311 1321 1328 1341 1357 1369 1376 1377 1380 1380 1382 1385 1391 1396 1401 1405 1413 1416 1422 1427 1437 1446 1450 1456 1459 1457 1456 1445 1440 1443 1446 1449 1450 1451 1452 1452 1451 1449 1448 1445 1442 1440 1437 1436 1434 1433 1430 1430 1429 1425
1261 1273 1286 1295 1304 1321 1333 1346 1355 1367 1376 1379 1380 1383 1384 1388 1391 1398 1401 1407 1413 1415 1419 1423 1427 1441 1445 1448 1450 1439 1438 1439 1442 1445 1446 1448 1449 1449 1449 1449 1448 1446 1443 1440 1437 1434 1432 1431 1429 1427 1425 1424 1424 1424
1263 1275 1287 1292 1301 1316 1335 1349 1356 1367 1378 1381 1384 1386 1388 1392 1396 1399 1402 1409 1412 1415 1418 1420 1428 1436 1434 1431 1431 1434 1436 1439 1442 1444 1445 1446 1446 1446 1446 1446 1445 1443 1440 1436 1433 1430 1426 1424 1423 1422 1421 1421 1419 1419
1266 1280 1295 1306 1314 1322 1337 1350 1356 1363 1376 1382 1386 1390 1392 1396 1400 1402 1407 1411 1414 1416 1418 1421 1422 1423 1424 1427 1430 1434 1436 1439 1441 1442 1443 1443 1444 1444 1443 1443 1442 1440 1437 1433 1430 1428 1424 1421 1420 1419 1418 1416 1416 1416
1281 1293 1300 1307 1315 1325 1340 1351 1360 1369 1376 1382 1387 1390 1397 1402 1404 1408 1411 1413 1415 1416 1418 1418 1420 1422 1425 1428 1431 1433 1435 1438 1438 1439 1440 1441 1441 1442 1441 1441 1439 1437 1435 1432 1429 1426 1423 1421 1419 1418 1416 1416 1415 1415
1284 1291 1298 1308 1320 1336 1348 1356 1361 1369 1375 1381 1387 1393 1399 1403 1407 1411 1413 1414 1415 1415 1416 1418 1420 1423 1425 1427 1430 1431 1433 1434 1435 1436 1437 1438 1439 1440 1440 1439 1438 1436 1434 1431 1428 1424 1421 1420 1418 1417 1417 1417 1417 1416
1292 1299 1307 1317 1328 1342 1360 1359 1362 1369 1376 1385 1389 1396 1402 1405 1408 1412 1414 1413 1412 1413 1414 1417 1420 1422 1424 1426 1428 1429 1430 1431 1432 1433 1434 1435 1437 1438 1437 1437 1436 1434 1432 1430 1427 1424 1422 1421 1420 1419 1419 1418 1418 1417
1299 1305 1316 1325 1336 1351 1356 1359 1363 1370 1377 1383 1390 1400 1403 1406 1409 1412 1412 1409 1407 1408 1411 1415 1418 1421 1423 1424 1425 1426 1427 1427 1428 1429 1431 1432 1434 1435 1435 1434 1433 1432 1430 1428 1425 1424 1422 1421 1420 1420 1419 1417 1418 1417
1304 1322 1325 1334 1341 1347 1355 1360 1366 1370 1379 1386 1393 1402 1405 1407 1410 1414 1410 1404 1404 1406 1409 1413 1417 1421 1422 1423 1424 1425 1425 1424 1424 1425 1427 1429 1431 1431 1431 1431 1431 1430 1427 1425 1423 1422 1420 1419 1418 1418 1418 1416 1416 1415
1319 1328 1330 1334 1341 1343 1353 1359 1365 1372 1378 1388 1397 1401 1403 1405 1408 1405 1402 1398 1401 1404 1408 1412 1416 1419 1421 1423 1423 1423 1423 1422 1423 1423 1425 1426 1427 1427 1427 1428 1427 1427 1424 1422 1421 1420 1418 1416 1415 1415 1415 1414 1414 1413
1327 1333 1334 1335 1338 1342 1353 1361 1364 1367 1376 1385 1393 1398 1400 1401 1402 1397 1396 1398 1401 1405 1410 1413 1416 1418 1420 1420 1421 1421 1421 1421 1421 1421 1421 1421 1421 1421 1421 1422 1421 1421 1420 1419 1418 1416 1415 1413 1411 1410 1410 1410 1411 1411
1331 1334 1336 1340 1340 1343 1350 1359 1364 1369 1374 1379 1384 1390 1392 1392 1395 1394 1395 1398 1403 1407 1410 1413 1415 1416 1417 1418 1418 1418 1417 1417 1416 1416 1416 1416 1416 1415 1415 1415 1414 1414 1414 1414 1414 1412 1410 1409 1408 1407 1406 1406 1407 1407
1334 1336 1337 1339 1342 1348 1356 1361 1366 1369 1371 1374 1377 1384 1386 1387 1390 1392 1396 1400 1405 1408 1410 1411 1413 1414 1415 1415 1414 1414 1413 1412 1412 1411 1410 1410 1410 1410 1409 1408 1408 1408 1407 1408 1407 1407 1407 1405 1404 1403 1403 1403 1403 1404
1337 1338 1340 1346 1351 1360 1364 1364 1366 1368 1371 1372 1375 1381 1385 1390 1393 1396 1399 1403 1405 1407 1408 1410 1411 1411 1411 1411 1411 1411 1411 1410 1409 1409 1408 1407 1406 1406 1403 1402 1401 1401 1400 1400 1400 1399 1399 1400 1399 1399 1399 1399 1400 1401
1339 1341 1345 1353 1362 1367 1367 1368 1370 1372 1374 1376 1379 1382 1387 1392 1396 1398 1400 1402 1403 1404 1406 1407 1408 1408 1409 1409 1409 1408 1408 1407 1406 1405 1403 1401 1400 1399 1399 1398 1397 1397 1396 1395 1394 1394 1394 1394 1395 1395 1395 1396 1397 1398
1342 1344 1348 1359 1368 1371 1370 1371 1373 1376 1379 1381 1385 1388 1391 1394 1396 1399 1400 1401 1403 1404 1405 1406 1406 1406 1406 1406 1404 1403 1401 1401 1400 1398 1396 1393 1391 1390 1389 1389 1390 1392 1393 1393 1392 1390 1391 1391 1391 1392 1392 1393 1395 1395
1350 1350 1353 1360 1366 1369 1371 1372 1376 1382 1385 1388 1391 1392 1393 1394 1396 1398 1400 1401 1402 1403 1403 1404 1404 1403 1402 1400 1399 1397 1395 1393 1390 1387 1385 1382 1379 1378 1377 1376 1377 1376 1380 1384 1386 1386 1386 1387 1389 1389 1390 1391 1393 1393